Starlink 4078

operational
NORAD ID: 52689 Int'l Des: 2022-053 Owner: SPXS Country: US Constellation: starlink
LEOCIRCULAR

About Starlink 4078

Description loading...

Live Position

Loading 3D Globe...

Upcoming Passes

Altitude History

Altitude vs Time

uPlot chart will show altitude changes over time

Two-Line Element Set

1 52689U 22053AK 25307.77818753 .00041856 00000-0 11044-2 0 9991
2 52689 53.2176 321.2694 0002743 56.1258 304.0007 15.38088890192541
Epoch: Nov 3, 2025 • Age: 11 hours

Current Status

Altitude 455.1 km
Velocity 7.65 km/s
Sub-Earth Point 47.77°N, 117.91°W
Launch Date May 18, 2022
Age 3.4 years
Type internet

Technical Details

Classification Payload
Mass 297.00 kg
Dry Mass 275.00 kg
Total Mass 297.00 kg
Length 0.20 m
Diameter 2.80 m
Span 9.00 m
Shape Box + pan
Manufacturer SPXS
Bus Type Starlink
Phase Status In Orbit
Owner/State SPXS/US

Large Constellations

Loading constellations...